Weather History for Harbor Springs, MI

Change the Weather History Date:

Thursday, October 3, 2013

  Actual Average (KPLN) Record (KPLN)
Temperature  
Mean Temperature 56 °F -  
Max Temperature 62 °F 60 °F 84 °F (2005)
Min Temperature 50 °F 39 °F 21 °F (1952)
Degree Days  
Heating Degree Days 9    
Growing Degree Days 6 (Base 50)    
Moisture  
Dew Point 51 °F    
Average Humidity 83    
Maximum Humidity 96    
Minimum Humidity 63    
Precipitation  
Precipitation 0.00 in - - ()
Sea Level Pressure  
Sea Level Pressure 29.98 in    
Wind  
Wind Speed 7 mph (ENE)    
Max Wind Speed 15 mph    
Max Gust Speed 21 mph    
Visibility 9 miles    
Events Rain    
Averages and records for this station are not official NWS values.
T = Trace of Precipitation, MM = Missing Value Source: NWS Daily Summary

Daily Weather History Graph

Daily Weather History Graph

Search for Another Location

Airport:

Trip Planner

Search our weather history database for the weather conditions in past years. The results will help you decide how hot, cold, wet, or windy it might be!

Date:

Astronomy

Oct. 03, 2013 Rise Set
Actual Time 7:40 AM EDT 7:15 PM EDT
Civil Twilight 7:11 AM EDT 7:45 PM EDT
Nautical Twilight 6:36 AM EDT 8:19 PM EDT
Astronomical Twilight 6:02 AM EDT 8:53 PM EDT
Moon 6:10 AM EDT (10/3) 6:24 PM EDT (10/3)
Length of Visible Light 12h 33m
Length of Day
11h 35m
Waning Crescent, 2% of the Moon is Illuminated
Oct 3
Waning Crescent
Oct 4
New
Oct 11
First Quarter
Oct 18
Full
Oct 26
Last Quarter

Hourly Weather History & Observations

Time (EDT) Temp. Dew Point Humidity Pressure Visibility Wind Dir Wind Speed Gust Speed Precip Events Conditions
12:14 AM 52.3 °F 48.9 °F 88% 30.08 in 10.0 mi NE 3.5 mph - N/A   Clear
12:34 AM 52.3 °F 48.7 °F 88% 30.07 in 10.0 mi NE 3.5 mph - N/A   Clear
12:55 AM 52.7 °F 49.3 °F 88% 30.06 in 10.0 mi NE 5.8 mph - N/A   Clear
1:14 AM 52.3 °F 48.6 °F 87% 30.05 in 10.0 mi ENE 4.6 mph - N/A   Clear
1:34 AM 52.3 °F 48.2 °F 86% 30.06 in 10.0 mi NE 4.6 mph - N/A   Clear
1:55 AM 51.4 °F 46.9 °F 85% 30.05 in 10.0 mi NE 4.6 mph - N/A   Clear
2:14 AM 50.0 °F 46.2 °F 87% 30.05 in 10.0 mi NE 4.6 mph - N/A   Clear
2:34 AM 50.0 °F 46.4 °F 87% 30.04 in 10.0 mi ENE 5.8 mph - N/A   Clear
2:55 AM 50.0 °F 45.9 °F 86% 30.04 in 10.0 mi ENE 5.8 mph - N/A   Clear
3:14 AM 50.0 °F 45.7 °F 85% 30.05 in 10.0 mi NNE 5.8 mph - N/A   Clear
3:35 AM 50.0 °F 45.7 °F 85% 30.04 in 10.0 mi NE 5.8 mph - N/A   Clear
3:54 AM 50.0 °F 46.2 °F 87% 30.04 in 10.0 mi ENE 5.8 mph - N/A   Clear
4:14 AM 50.0 °F 47.3 °F 90% 30.04 in 10.0 mi ENE 4.6 mph - N/A   Clear
4:35 AM 50.0 °F 45.7 °F 85% 30.04 in 10.0 mi NE 4.6 mph - N/A   Clear
4:54 AM 52.3 °F 44.1 °F 73% 30.04 in 10.0 mi NE 5.8 mph - N/A   Clear
5:14 AM 52.2 °F 43.5 °F 72% 30.04 in 10.0 mi ENE 5.8 mph - N/A   Clear
5:35 AM 50.0 °F 43.3 °F 78% 30.05 in 10.0 mi NNE 4.6 mph - N/A   Clear
5:54 AM 50.5 °F 42.4 °F 74% 30.04 in 10.0 mi ENE 4.6 mph - N/A   Clear
6:14 AM 50.4 °F 43.2 °F 76% 30.03 in 10.0 mi ENE 6.9 mph - N/A   Clear
6:35 AM 51.1 °F 43.2 °F 74% 30.03 in 10.0 mi NE 8.1 mph - N/A   Scattered Clouds
6:54 AM 54.1 °F 45.0 °F 71% 30.03 in 10.0 mi NE 10.4 mph - N/A   Scattered Clouds
7:14 AM 54.9 °F 45.3 °F 70% 30.03 in 10.0 mi ENE 8.1 mph - N/A   Overcast
7:35 AM 54.9 °F 46.4 °F 73% 30.01 in 10.0 mi East 9.2 mph - N/A   Overcast
7:54 AM 54.9 °F 46.4 °F 73% 30.02 in 10.0 mi East 8.1 mph - N/A   Overcast
8:14 AM 54.9 °F 45.0 °F 69% 30.01 in 10.0 mi ENE 8.1 mph - N/A   Overcast
8:35 AM 54.9 °F 45.5 °F 71% 30.00 in 10.0 mi ENE 10.4 mph - N/A   Mostly Cloudy
8:54 AM 56.3 °F 45.7 °F 68% 30.01 in 10.0 mi NE 8.1 mph - N/A   Overcast
9:15 AM 57.4 °F 46.4 °F 67% 30.00 in 10.0 mi ENE 10.4 mph - N/A   Overcast
9:35 AM 57.4 °F 46.6 °F 67% 29.99 in 10.0 mi East 9.2 mph - N/A   Overcast
9:54 AM 58.3 °F 47.1 °F 66% 29.99 in 10.0 mi ENE 8.1 mph - N/A   Overcast
10:15 AM 59.9 °F 48.0 °F 65% 29.98 in 10.0 mi ENE 10.4 mph - N/A   Overcast
10:35 AM 61.2 °F 48.4 °F 63% 29.98 in 10.0 mi NE 6.9 mph - N/A   Overcast
10:54 AM 59.9 °F 50.4 °F 71% 29.97 in 10.0 mi ENE 8.1 mph - N/A Rain Light Rain
11:15 AM 61.2 °F 51.1 °F 69% 29.96 in 10.0 mi ENE 8.1 mph - N/A   Overcast
11:35 AM 62.6 °F 51.4 °F 67% 29.96 in 10.0 mi ENE 9.2 mph - N/A   Overcast
11:54 AM 62.6 °F 52.0 °F 68% 29.95 in 10.0 mi East 8.1 mph - N/A   Overcast
12:14 PM 60.8 °F 51.8 °F 72% 29.94 in 10.0 mi ENE 13.8 mph - N/A   Overcast
12:35 PM 60.4 °F 51.3 °F 72% 29.94 in 10.0 mi ENE 12.7 mph - N/A   Overcast
12:54 PM 62.6 °F 51.6 °F 67% 29.94 in 10.0 mi ENE 11.5 mph - N/A   Overcast
1:14 PM 62.6 °F 51.8 °F 68% 29.93 in 10.0 mi ENE 9.2 mph - N/A   Overcast
1:35 PM 61.2 °F 52.3 °F 73% 29.93 in 7.0 mi NE 8.1 mph - N/A Rain Rain
1:54 PM 59.9 °F 55.0 °F 84% 29.95 in 7.0 mi North 8.1 mph - N/A Rain Rain
2:15 PM 57.4 °F 54.5 °F 90% 29.95 in 10.0 mi North 11.5 mph 17.3 mph N/A Rain Light Rain
2:34 PM 57.4 °F 55.0 °F 92% 29.95 in 10.0 mi North 6.9 mph - N/A Rain Light Rain
2:54 PM 57.4 °F 54.7 °F 91% 29.95 in 10.0 mi NNE 6.9 mph - N/A Rain Light Rain
3:15 PM 57.6 °F 55.2 °F 92% 29.94 in 10.0 mi NNE 5.8 mph - N/A   Light Drizzle
3:34 PM 58.1 °F 55.6 °F 91% 29.94 in 10.0 mi ENE 5.8 mph - N/A Rain Rain
3:54 PM 58.1 °F 55.8 °F 92% 29.94 in 10.0 mi ENE 6.9 mph - N/A Rain Rain
4:14 PM 57.7 °F 55.9 °F 94% 29.93 in 7.0 mi ENE 9.2 mph - N/A   Drizzle
4:34 PM 57.7 °F 55.9 °F 94% 29.94 in 7.0 mi ENE 6.9 mph - N/A Rain Rain
4:55 PM 57.7 °F 55.9 °F 94% 29.94 in 5.0 mi ENE 5.8 mph - N/A Rain Rain
5:14 PM 57.7 °F 56.1 °F 94% 29.94 in 4.0 mi ENE 6.9 mph - N/A Rain Light Rain
5:34 PM 57.7 °F 56.1 °F 94% 29.94 in 5.0 mi East 9.2 mph - N/A Rain Light Rain
5:55 PM 57.4 °F 55.8 °F 94% 29.94 in 10.0 mi East 10.4 mph - N/A   Overcast
6:14 PM 57.6 °F 56.3 °F 96% 29.93 in 10.0 mi ENE 9.2 mph - N/A   Overcast
6:34 PM 57.6 °F 56.3 °F 96% 29.94 in 10.0 mi ENE 8.1 mph - N/A   Overcast
6:55 PM 57.7 °F 56.3 °F 95% 29.94 in 5.0 mi ENE 10.4 mph - N/A Rain Rain
7:14 PM 57.6 °F 56.3 °F 96% 29.94 in 5.0 mi ENE 8.1 mph - N/A   Overcast
7:34 PM 57.7 °F 56.5 °F 96% 29.94 in 10.0 mi ENE 10.4 mph - N/A   Overcast
7:55 PM 57.6 °F 56.3 °F 96% 29.94 in 10.0 mi ENE 12.7 mph - N/A   Overcast
8:14 PM 57.6 °F 56.3 °F 96% 29.95 in 10.0 mi ENE 12.7 mph - N/A   Overcast
8:34 PM 57.6 °F 56.1 °F 95% 29.95 in 10.0 mi ENE 12.7 mph 19.6 mph N/A   Overcast
8:54 PM 57.4 °F 55.8 °F 94% 29.96 in 10.0 mi ENE 12.7 mph - N/A   Overcast
9:14 PM 57.4 °F 55.6 °F 94% 29.96 in 10.0 mi ENE 13.8 mph - N/A   Overcast
9:35 PM 57.4 °F 55.0 °F 92% 29.96 in 10.0 mi ENE 15.0 mph - N/A Rain Rain
9:54 PM 55.2 °F 53.6 °F 94% 29.96 in 5.0 mi ENE 13.8 mph - N/A Rain Rain
10:14 PM 55.2 °F 53.6 °F 94% 29.96 in 4.0 mi ENE 12.7 mph 20.7 mph N/A Rain Rain
10:35 PM 55.4 °F 53.8 °F 94% 29.95 in 5.0 mi ENE 12.7 mph 18.4 mph N/A Rain Light Rain
10:54 PM 55.2 °F 53.8 °F 95% 29.95 in 10.0 mi ENE 11.5 mph - N/A Rain Light Rain
11:14 PM 55.2 °F 53.6 °F 94% 29.95 in 10.0 mi ENE 10.4 mph - N/A   Light Drizzle
11:35 PM 55.4 °F 53.6 °F 94% 29.96 in 5.0 mi ENE 12.7 mph - N/A Rain Heavy Rain